Wind_Speed
24 21 25 30 32 34 35 34 33 32 32 34 36 39 41 42 41 40 38 38 39 38 40 43 44 43 46 45 48 51 53 55 59 55 54 48 45 46 44 38 45 44 43
30 24 23 23 26 33 37 38 37 34 34 34 35 40 38 39 40 40 40 41 43 45 45 47 49 48 51 50 54 57 61 60 65 62 56 55 47 45 45 46 41 46 43
32 27 22 24 27 29 30 36 37 35 34 33 36 37 36 38 39 39 41 43 44 46 49 52 52 54 56 58 53 56 50 52 59 63 54 55 50 46 44 44 45 42 44
31 32 28 28 31 32 30 32 35 34 34 32 35 35 37 40 41 42 43 44 45 47 50 55 59 55 53 47 43 40 40 42 46 52 48 51 50 48 46 42 42 43 39
29 32 33 36 36 35 31 30 32 33 32 32 32 35 36 38 41 41 43 44 45 48 53 59 56 58 54 40 33 35 36 34 31 33 36 40 43 44 47 46 41 40 34
28 34 38 38 35 35 34 28 29 26 28 28 31 32 33 36 38 38 41 42 42 48 57 56 60 57 38 24 27 28 30 32 31 30 30 30 32 34 38 40 32 35 37
34 34 31 31 32 32 26 23 24 24 28 27 29 29 32 35 37 39 39 35 41 49 51 49 58 47 29 23 26 31 33 29 30 31 31 30 29 25 26 31 31 31 28
29 30 31 34 35 28 18 22 23 25 25 28 28 29 32 35 36 36 35 34 39 46 48 48 49 41 25 27 30 19 17 26 25 25 24 22 28 25 25 25 26 28 29
27 28 30 30 29 19 21 22 22 25 30 31 27 27 29 30 32 34 35 32 36 42 47 47 37 40 21 27 21 14 13 16 16 16 15 15 23 26 25 27 27 28 28
24 24 25 25 21 21 23 24 22 28 25 27 26 27 25 26 29 33 34 32 34 38 40 52 33 46 25 21 19 13 16 12 11 9 8 10 18 26 25 24 25 26 25
20 22 23 23 23 23 27 27 24 25 29 25 24 20 21 25 29 34 33 31 32 32 39 44 49 33 34 10 14 14 15 12 9 4 4 13 20 19 19 21 22 24 25
25 26 25 21 25 23 33 29 23 31 33 21 21 18 22 28 31 33 31 29 29 29 33 37 42 37 35 28 18 14 13 7 11 10 9 12 18 21 22 21 21 21 21
24 34 24 29 24 27 27 31 34 31 25 16 16 18 23 30 30 31 28 27 24 23 27 28 32 38 37 37 28 16 12 11 14 20 17 15 12 16 19 19 17 15 15
24 24 22 26 27 12 13 27 36 32 20 17 16 18 23 28 27 26 22 22 20 22 22 26 27 31 28 31 33 31 22 17 12 9 10 15 8 7 15 13 12 11 14
30 23 21 17 20 21 16 27 33 26 18 16 15 19 20 25 27 25 20 19 18 19 23 23 21 22 24 23 28 28 28 25 24 25 20 13 7 5 5 8 10 11 12
27 32 24 27 33 15 17 20 18 14 18 18 16 16 22 26 25 22 21 18 18 19 18 23 21 21 22 23 22 23 25 25 25 24 21 20 18 16 10 6 6 5 7
25 24 27 30 20 18 21 21 18 18 16 11 18 17 21 25 21 16 19 15 15 17 20 17 17 17 17 18 20 18 19 19 20 23 20 21 21 21 22 19 16 15 15
18 19 19 16 15 17 22 17 19 16 16 14 13 18 18 18 22 13 15 15 16 16 16 17 15 16 17 14 14 14 15 14 12 13 12 13 14 14 14 15 14 14 14
16 14 11 11 12 13 14 17 16 16 14 13 13 20 18 15 16 15 12 12 13 15 15 15 16 15 13 14 15 14 12 11 11 11 10 8 7 7 8 7 7 7 7
10 12 10 8 8 10 10 11 11 15 16 19 20 17 14 13 18 16 12 12 13 13 14 15 15 15 14 14 13 13 13 12 11 9 9 9 10 10 9 8 7 6 6
9 16 16 14 8 8 9 12 15 12 12 17 19 16 17 14 13 13 12 12 13 12 12 13 13 13 13 13 13 13 12 11 10 9 9 9 9 9 9 9 9 10 11
10 12 11 15 10 7 15 10 7 12 13 16 13 12 12 13 14 13 14 14 14 13 12 12 13 12 11 11 11 11 11 12 11 10 10 10 10 10 10 12 13 14 14
7 6 0 6 12 16 16 11 12 11 13 14 10 13 13 13 12 13 14 16 14 13 12 11 12 13 12 12 12 12 11 10 10 11 11 12 13 13 14 15 16 18 19
10 8 9 12 16 18 16 16 11 7 11 11 14 13 13 14 15 15 15 16 15 13 12 12 12 14 14 14 13 12 11 10 10 10 11 12 13 14 15 17 19 21 22
12 12 10 11 8 13 16 9 7 6 12 10 8 13 16 17 16 16 18 16 15 13 12 13 13 13 13 14 13 12 11 11 12 12 13 14 15 17 19 20 21 22 24
12 11 6 8 7 5 6 4 2 5 5 7 11 15 15 15 16 16 18 16 14 13 13 14 14 14 13 12 11 12 13 13 13 14 15 16 18 20 22 23 23 23 24
Wind_Direction
274 290 276 267 266 274 274 271 275 281 293 305 312 317 319 325 321 320 322 324 321 318 311 306 303 301 296 292 287 285 280 273 270 269 269 264 255 251 248 251 248 249 253
275 272 282 300 290 285 278 273 274 281 294 304 313 319 316 323 319 321 325 324 322 316 313 308 307 306 299 293 292 288 282 274 271 267 266 264 260 254 251 245 247 246 249
263 272 281 285 298 303 288 276 276 283 294 302 313 314 321 318 317 322 325 324 320 319 315 312 312 306 302 297 293 292 284 280 270 265 262 259 258 256 250 244 240 245 241
263 263 272 283 294 298 297 290 280 283 292 306 311 318 318 318 323 326 326 323 323 318 316 318 315 308 307 301 294 287 289 290 274 264 261 253 257 252 248 240 241 241 241
257 262 274 284 286 291 293 284 278 282 298 303 318 315 320 320 322 326 324 325 322 322 324 322 319 317 317 301 288 291 292 291 287 269 264 258 254 248 240 240 244 238 239
258 272 283 290 302 303 304 278 278 292 300 311 310 314 317 321 323 322 323 325 327 327 326 328 327 324 318 294 286 281 287 287 279 273 268 261 254 244 240 236 234 230 230
274 284 296 301 295 297 291 275 286 296 300 304 304 314 318 320 319 320 324 328 329 331 330 330 342 329 319 297 287 282 275 286 283 278 270 262 254 239 226 219 220 225 231
284 290 295 300 291 296 272 275 284 293 301 302 309 315 318 319 321 321 330 333 333 338 339 334 336 332 319 313 300 311 291 282 284 275 264 254 241 230 217 216 217 218 220
286 291 291 291 292 268 266 275 286 300 305 304 307 316 318 321 320 328 335 333 333 342 345 345 328 336 321 329 337 326 311 303 291 280 267 248 232 212 207 210 210 213 219
280 281 279 282 265 258 267 274 287 296 298 306 308 315 324 324 333 332 331 330 338 345 354 356 349 356 326 323 345 327 333 325 301 287 256 225 192 196 192 202 203 211 216
272 274 274 271 256 261 269 275 284 295 306 307 301 317 331 332 332 334 326 325 338 345 348 356 1 2 10 342 355 343 344 346 327 247 177 173 173 186 195 196 201 207 213
268 270 268 258 253 262 283 268 277 280 301 290 296 323 335 338 332 330 321 325 335 333 346 354 359 2 16 41 29 7 355 322 30 78 149 173 183 190 192 196 201 209 220
262 298 266 257 263 276 298 268 296 290 281 278 282 315 334 333 326 326 322 322 334 331 347 353 1 358 11 24 58 36 27 31 27 21 51 118 156 179 188 200 209 214 225
291 282 312 288 292 310 297 277 280 280 277 278 281 292 324 323 322 324 322 323 331 328 342 350 354 352 21 16 23 54 65 64 54 63 77 73 54 96 174 189 202 225 238
285 276 291 296 297 311 293 279 284 266 247 257 276 304 312 316 325 322 330 330 326 336 348 349 340 343 9 31 24 34 40 57 62 69 83 66 59 86 139 186 208 226 237
276 281 281 282 291 286 269 268 265 252 253 272 276 302 305 310 314 320 328 330 326 334 360 355 353 356 4 13 39 37 42 40 46 56 65 73 74 78 85 125 157 194 212
280 282 275 276 278 270 258 249 254 257 256 269 278 285 309 307 317 320 321 330 332 341 351 358 357 6 5 6 14 29 41 51 46 48 50 56 60 66 71 68 64 63 59
274 272 273 271 273 272 256 256 268 266 266 266 273 296 302 310 320 334 326 332 337 345 345 343 358 3 4 14 13 18 19 29 33 41 49 40 43 51 53 61 69 70 67
272 288 282 271 260 250 248 265 264 279 276 292 272 286 301 313 325 337 326 334 336 341 339 342 349 2 9 7 8 16 22 19 22 19 15 17 22 15 13 20 20 14 6
275 285 274 224 247 270 265 244 273 278 277 286 286 285 295 311 329 321 329 336 336 345 337 342 346 352 358 2 5 5 7 13 14 16 7 6 8 10 15 16 10 4 353
295 301 259 257 274 263 282 285 277 277 273 291 268 255 286 312 314 318 317 325 337 342 339 342 343 342 346 348 351 352 353 356 359 358 357 358 359 360 357 352 353 351 348
308 323 233 223 223 266 273 273 257 271 283 283 270 246 286 315 332 326 322 330 334 338 339 343 340 339 342 345 344 343 343 343 345 350 352 356 354 355 352 351 348 347 344
291 321 46 211 233 251 248 244 260 275 254 239 251 294 307 325 339 329 322 323 331 336 341 340 332 337 341 336 337 338 340 343 343 345 351 350 345 343 342 341 339 334 330
267 273 263 250 252 251 230 239 235 235 256 261 291 297 322 335 335 322 316 319 329 337 338 336 330 328 330 333 334 333 333 338 340 341 340 338 331 329 332 330 328 325 322
265 270 258 249 218 235 207 226 267 239 243 259 295 319 325 321 315 310 311 319 326 331 331 327 327 329 329 327 329 329 334 336 336 336 335 333 326 323 324 324 323 320 318
253 254 227 191 215 244 227 264 211 231 249 287 305 310 310 308 307 309 309 319 328 329 328 329 329 331 334 334 337 336 335 334 334 332 329 326 325 323 323 322 321 320 317
Height
3198 3197 3198 3197 3196 3195 3194 3192 3190 3188 3186 3183 3179 3174 3168 3161 3155 3149 3144 3139 3134 3129 3124 3117 3112 3109 3103 3099 3095 3089 3084 3080 3071 3076 3076 3082 3087 3090 3094 3097 3099 3101 3103
3191 3192 3192 3191 3190 3190 3188 3186 3184 3182 3179 3176 3172 3168 3160 3152 3147 3141 3135 3130 3125 3118 3112 3105 3100 3095 3089 3082 3076 3069 3063 3061 3055 3055 3063 3063 3068 3074 3078 3083 3086 3088 3091
3185 3186 3186 3186 3186 3184 3181 3180 3178 3176 3173 3169 3164 3159 3151 3145 3140 3134 3128 3122 3115 3108 3100 3093 3086 3078 3069 3062 3054 3045 3041 3037 3034 3031 3043 3046 3051 3057 3061 3067 3072 3076 3082
3177 3180 3181 3181 3179 3178 3176 3174 3171 3169 3166 3163 3159 3150 3144 3139 3133 3127 3120 3114 3107 3100 3091 3082 3071 3060 3050 3041 3034 3030 3027 3020 3016 3015 3025 3030 3034 3041 3046 3053 3057 3063 3070
3171 3174 3175 3174 3173 3171 3168 3166 3163 3161 3158 3156 3149 3146 3139 3132 3125 3119 3113 3107 3099 3090 3080 3068 3054 3040 3031 3023 3019 3017 3014 3010 3007 3006 3010 3015 3018 3024 3032 3040 3047 3054 3060
3166 3168 3168 3166 3162 3161 3160 3159 3157 3153 3151 3145 3142 3137 3131 3125 3118 3114 3107 3100 3091 3081 3069 3055 3040 3027 3017 3012 3011 3008 3005 3002 3001 3001 3003 3005 3007 3013 3021 3028 3038 3043 3050
3162 3162 3159 3157 3155 3154 3153 3152 3150 3148 3144 3140 3135 3130 3124 3119 3113 3108 3101 3094 3085 3075 3061 3047 3033 3020 3011 3006 3003 2999 2996 2995 2993 2993 2993 2996 3000 3007 3015 3022 3029 3035 3042
3154 3153 3152 3151 3149 3147 3146 3145 3143 3140 3137 3134 3129 3125 3120 3113 3107 3101 3095 3087 3080 3071 3057 3044 3031 3015 3006 3001 2993 2991 2989 2989 2986 2984 2985 2988 2992 3000 3007 3015 3024 3030 3034
3147 3147 3146 3144 3142 3141 3140 3139 3136 3133 3131 3129 3123 3119 3115 3109 3102 3096 3089 3082 3077 3067 3056 3043 3026 3013 3003 2998 2991 2987 2986 2984 2981 2979 2979 2981 2985 2993 3001 3007 3014 3022 3028
3141 3140 3137 3136 3133 3133 3133 3132 3128 3126 3123 3123 3118 3113 3109 3105 3098 3092 3083 3078 3072 3063 3054 3041 3025 3013 3002 2997 2991 2987 2984 2981 2979 2977 2977 2977 2981 2990 2996 3004 3011 3018 3023
3133 3132 3130 3129 3128 3128 3127 3125 3122 3120 3120 3116 3113 3109 3105 3101 3095 3088 3081 3075 3068 3060 3051 3040 3029 3017 3002 2994 2991 2987 2984 2980 2976 2976 2977 2979 2984 2991 2997 3003 3009 3014 3018
3125 3123 3124 3120 3122 3122 3123 3118 3117 3115 3114 3111 3107 3104 3100 3096 3091 3085 3079 3073 3065 3059 3051 3042 3032 3023 3008 2993 2992 2989 2986 2980 2970 2971 2976 2981 2986 2991 2996 3001 3006 3011 3016
3114 3113 3114 3116 3116 3117 3113 3113 3112 3107 3104 3104 3102 3100 3096 3092 3088 3082 3076 3071 3064 3059 3052 3045 3038 3030 3017 3004 2995 2992 2990 2986 2982 2974 2978 2981 2987 2991 2996 3001 3005 3008 3011
3108 3109 3108 3110 3112 3108 3104 3105 3103 3100 3098 3098 3097 3095 3092 3089 3084 3079 3075 3069 3064 3058 3052 3047 3040 3034 3026 3016 3005 2997 2993 2991 2989 2988 2988 2985 2986 2987 2994 2999 3001 3005 3006
3101 3102 3102 3102 3102 3098 3097 3097 3094 3092 3092 3093 3093 3091 3088 3086 3082 3076 3071 3066 3062 3056 3050 3047 3042 3038 3030 3021 3015 3009 3003 2998 2995 2993 2991 2993 2994 2993 2995 2999 3001 3003 3004
3092 3092 3094 3094 3093 3091 3090 3090 3088 3087 3088 3088 3088 3086 3085 3082 3079 3072 3068 3064 3060 3055 3049 3045 3041 3037 3031 3026 3020 3017 3013 3011 3007 3004 3000 2999 2998 2997 2997 2998 2999 3001 3002
3084 3084 3085 3084 3083 3083 3082 3083 3083 3082 3083 3083 3082 3081 3081 3078 3075 3070 3066 3063 3059 3054 3048 3046 3042 3038 3034 3029 3025 3021 3019 3016 3015 3013 3010 3007 3006 3005 3004 3004 3003 3002 3001
3077 3077 3076 3075 3075 3076 3077 3079 3079 3079 3078 3079 3078 3078 3077 3075 3074 3068 3064 3061 3057 3053 3049 3045 3042 3039 3035 3032 3029 3026 3023 3021 3020 3017 3015 3014 3012 3012 3011 3010 3010 3009 3008
3070 3070 3069 3068 3070 3073 3074 3075 3074 3074 3075 3074 3075 3074 3073 3071 3069 3065 3063 3059 3057 3054 3048 3044 3042 3039 3036 3033 3030 3027 3025 3023 3021 3019 3018 3016 3015 3014 3014 3013 3012 3011 3010
3064 3064 3065 3065 3067 3069 3069 3069 3070 3070 3071 3071 3071 3070 3070 3067 3064 3064 3060 3057 3055 3052 3048 3045 3041 3039 3036 3033 3031 3029 3026 3024 3023 3021 3019 3017 3015 3014 3014 3013 3012 3011 3010
3060 3059 3059 3061 3062 3064 3065 3066 3064 3065 3067 3066 3065 3065 3065 3066 3063 3061 3058 3056 3054 3051 3047 3044 3042 3039 3036 3033 3031 3029 3027 3025 3024 3022 3021 3019 3017 3016 3014 3012 3011 3010 3009
3056 3053 3051 3056 3059 3060 3062 3062 3062 3063 3063 3062 3061 3063 3063 3062 3059 3057 3056 3054 3052 3050 3046 3042 3040 3039 3036 3034 3031 3029 3027 3024 3023 3021 3020 3019 3017 3015 3013 3012 3010 3009 3007
3052 3051 3052 3054 3055 3057 3057 3057 3057 3057 3058 3058 3059 3060 3059 3058 3056 3055 3053 3052 3050 3048 3045 3041 3038 3037 3035 3033 3030 3028 3026 3024 3022 3020 3018 3017 3015 3012 3011 3009 3008 3006 3004
3050 3049 3048 3050 3051 3051 3052 3053 3053 3055 3055 3055 3057 3057 3055 3054 3053 3051 3051 3049 3047 3045 3042 3040 3038 3035 3033 3031 3029 3027 3025 3023 3021 3020 3018 3017 3014 3012 3010 3008 3005 3003 3001
3045 3045 3045 3045 3045 3046 3047 3049 3051 3053 3054 3055 3055 3054 3053 3052 3051 3048 3047 3046 3044 3043 3041 3038 3036 3034 3032 3029 3027 3025 3023 3021 3019 3017 3015 3014 3011 3009 3007 3005 3002 2999 2996
3043 3041 3041 3042 3043 3045 3047 3048 3049 3051 3053 3052 3053 3052 3051 3050 3047 3045 3043 3043 3042 3039 3037 3035 3033 3031 3029 3027 3025 3023 3021 3019 3017 3015 3013 3011 3008 3005 3003 3000 2997 2994 2991